{"data":{"norad_id":66899,"intl_designator":"2025-283X","name":"STARLINK-36064","alt_names":[],"object_type":"PAYLOAD","status":"ACTIVE","operator":null,"country":"US","launch_date":"2025-12-04","launch_site_code":"AFWTR","launch_vehicle":null,"mission":null,"orbit_class":"UNKNOWN","rcs_meters":null,"size_class":null,"mass_kg":null,"dimensions":null,"purposes":["comms"],"wikipedia_slug":null,"has_3d_model":false,"image_url":null,"decayed_at":null,"tle_current":{"epoch":"2026-05-25T01:46:29.741376Z","epoch_age_seconds":68745,"freshness":"FRESH","line1":"1 66899U 25283X   26145.07395534  .00066849  00000+0  19675-2 0  9994","line2":"2 66899  53.1623  29.0345 0001258 105.1206 254.9936 15.34473185 27541","mean_motion":15.34473185,"eccentricity":0.0001258,"inclination_deg":53.1623,"raan_deg":29.0345,"arg_perigee_deg":105.1206,"mean_anomaly_deg":254.9936,"bstar":0.0019675,"rev_number":2754,"period_min":93.843282116396,"perigee_km":461.62517727034,"apogee_km":463.34627794861,"semimajor_km":6840.6227276095,"source":"CELESTRAK","updated_at":"2026-05-25T13:38:21.382699Z"}}}